Weather History for Cross City, FL

Change the Weather History Date:

Tuesday, February 26, 2013

  Actual Average Record
Temperature  
Mean Temperature 68 °F 59 °F  
Max Temperature 75 °F 73 °F 82 °F (2001)
Min Temperature 60 °F 45 °F 39 °F (1999)
Cooling Degree Days 3 1  
Month to date cooling degree days 45 20  
Year to date cooling degree days 96 31  
Growing Degree Days 18 (Base 50)    
Moisture  
Dew Point 60 °F    
Average Humidity 78    
Maximum Humidity 100    
Minimum Humidity 54    
Precipitation  
Precipitation 0.77 in 0.15 in 1.27 in (2014)
Month to date precipitation 2.93 2.93  
Year to date precipitation 3.51 6.97  
Sea Level Pressure  
Sea Level Pressure 29.76 in    
Wind  
Wind Speed 10 mph (SW)    
Max Wind Speed 33 mph    
Max Gust Speed 46 mph    
T = Trace of Precipitation, MM = Missing Value Source: NWS Daily Summary

Daily Weather History Graph

Daily Weather History Graph

Search for Another Location

Airport:

Trip Planner

Search our weather history database for the weather conditions in past years. The results will help you decide how hot, cold, wet, or windy it might be!

Date:

Astronomy

Feb. 26, 2013 Rise Set
Actual Time 7:01 AM EST 6:29 PM EST
Civil Twilight 6:37 AM EST 6:53 PM EST
Nautical Twilight 6:09 AM EST 7:21 PM EST
Astronomical Twilight 5:41 AM EST 7:49 PM EST
Moon 7:35 PM EST 7:10 AM EST
Length of Visible Light 12h 16m
Length of Day
11h 28m
Full, 99% of the Moon is Illuminated
Feb 26
Full
Mar 4
Last Quarter
Mar 11
New
Mar 19
First Quarter
Mar 27
Full

Hourly Weather History & Observations

Time (EST) Temp. Dew Point Humidity Pressure Visibility Wind Dir Wind Speed Gust Speed Precip Events Conditions
12:53 AM 64.9 °F 63.0 °F 93% 29.76 in - SSE 3.5 mph - 0.01 in   Unknown
1:53 AM 66.0 °F 64.0 °F 93% 29.73 in - SE 5.8 mph - N/A   Unknown
2:53 AM 66.0 °F 64.0 °F 93% 29.70 in - SE 5.8 mph - 0.01 in   Unknown
3:53 AM 66.9 °F 64.9 °F 93% 29.70 in - Calm Calm - N/A   Unknown
4:53 AM 66.9 °F 64.9 °F 93% 29.66 in - SE 5.8 mph - 0.01 in   Unknown
5:53 AM 71.1 °F 66.9 °F 87% 29.65 in - SSE 12.7 mph - 0.01 in   Unknown
6:53 AM 72.0 °F 69.1 °F 91% 29.64 in - South 16.1 mph 24.2 mph 0.07 in   Unknown
7:53 AM 66.9 °F 66.0 °F 97% 29.70 in - WSW 11.5 mph 24.2 mph 0.40 in   Unknown
8:53 AM 62.1 °F 61.0 °F 96% 29.72 in - South 8.1 mph - 0.26 in   Unknown
9:53 AM 64.9 °F 60.1 °F 84% 29.76 in - South 8.1 mph - N/A   Unknown
10:53 AM 70.0 °F 61.0 °F 73% 29.76 in - SW 8.1 mph - N/A   Unknown
11:53 AM 75.0 °F 59.0 °F 57% 29.77 in - WSW 11.5 mph 19.6 mph N/A   Unknown
12:53 PM 75.0 °F 57.9 °F 55% 29.77 in - SW 18.4 mph 25.3 mph N/A   Unknown
1:53 PM 73.9 °F 59.0 °F 59% 29.76 in - SW 17.3 mph 25.3 mph N/A   Unknown
2:53 PM 72.0 °F 55.9 °F 57% 29.77 in - West 18.4 mph 23.0 mph N/A   Unknown
3:53 PM 72.0 °F 55.0 °F 55% 29.76 in - SW 13.8 mph 23.0 mph N/A   Unknown
4:53 PM 69.1 °F 55.0 °F 61% 29.76 in - SW 13.8 mph 24.2 mph N/A   Unknown
5:53 PM 66.9 °F 55.9 °F 68% 29.77 in - SW 13.8 mph - N/A   Unknown
6:53 PM 64.0 °F 55.9 °F 75% 29.80 in - WSW 8.1 mph - N/A   Unknown
7:53 PM 63.0 °F 55.9 °F 78% 29.82 in - WSW 6.9 mph - N/A   Unknown
8:53 PM 61.0 °F 55.0 °F 81% 29.84 in - WSW 5.8 mph - N/A   Unknown
9:53 PM 60.1 °F 55.0 °F 83% 29.85 in - SW 5.8 mph - N/A   Unknown
10:53 PM 61.0 °F 55.0 °F 81% 29.88 in - West 6.9 mph - N/A   Unknown
11:53 PM 61.0 °F 54.0 °F 78% 29.88 in - West 8.1 mph - N/A   Unknown